owner,sensor,date,latitude,longitude,air_temperature,qcFlag 
COMPS,ioos:station:USF.COMPS:BGC:1,2014-06-01T00:00:00Z,26.4040,-81.8810,25.32,1111122 
COMPS,ioos:station:USF.COMPS:BGC:1,2014-06-01T00:06:00Z,26.4040,-81.8810,23.2,1111122 
COMPS,ioos:station:USF.COMPS:BGC:1,2014-06-01T00:12:00Z,26.4040,-81.8810,25.55,1111122 
COMPS,ioos:station:USF.COMPS:BGC:1,2014-06-01T00:18:00Z,26.4040,-81.8810,25.54,1111122 
COMPS,ioos:station:USF.COMPS:BGC:1,2014-06-01T00:24:00Z,26.4040,-81.8810,25.62,1111122 
COMPS,ioos:station:USF.COMPS:BGC:1,2014-06-01T00:30:00Z,26.4040,-81.8810,25.66,1111122 
COMPS,ioos:station:USF.COMPS:BGC:1,2014-06-01T00:36:00Z,26.4040,-81.8810,25.51,1111122 
COMPS,ioos:station:USF.COMPS:BGC:1,2014-06-01T00:42:00Z,26.4040,-81.8810,25.42,1111122 
COMPS,ioos:station:USF.COMPS:BGC:1,2014-06-01T00:48:00Z,26.4040,-81.8810,25.29,1111122 
COMPS,ioos:station:USF.COMPS:BGC:1,2014-06-01T00:54:00Z,26.4040,-81.8810,25.07,1111122 
COMPS,ioos:station:USF.COMPS:BGC:1,2014-06-01T01:00:00Z,26.4040,-81.8810,25.09,1111122 
COMPS,ioos:station:USF.COMPS:BGC:1,2014-06-01T01:06:00Z,26.4040,-81.8810,25.25,1111122 
COMPS,ioos:station:USF.COMPS:BGC:1,2014-06-01T01:12:00Z,26.4040,-81.8810,25.3,1111122 
COMPS,ioos:station:USF.COMPS:BGC:1,2014-06-01T01:18:00Z,26.4040,-81.8810,25.35,1111122 
COMPS,ioos:station:USF.COMPS:BGC:1,2014-06-01T01:24:00Z,26.4040,-81.8810,25.33,1111122 
COMPS,ioos:station:USF.COMPS:BGC:1,2014-06-01T01:30:00Z,26.4040,-81.8810,25.38,1111122 
COMPS,ioos:station:USF.COMPS:BGC:1,2014-06-01T01:36:00Z,26.4040,-81.8810,25.29,1111122 
COMPS,ioos:station:USF.COMPS:BGC:1,2014-06-01T01:42:00Z,26.4040,-81.8810,25.15,1111122 
COMPS,ioos:station:USF.COMPS:BGC:1,2014-06-01T01:48:00Z,26.4040,-81.8810,25.04,1111122 
COMPS,ioos:station:USF.COMPS:BGC:1,2014-06-01T01:54:00Z,26.4040,-81.8810,24.85,1111122 
COMPS,ioos:station:USF.COMPS:BGC:1,2014-06-01T02:00:00Z,26.4040,-81.8810,24.63,1111122 
COMPS,ioos:station:USF.COMPS:BGC:1,2014-06-01T02:06:00Z,26.4040,-81.8810,24.55,1111122 
COMPS,ioos:station:USF.COMPS:BGC:1,2014-06-01T02:12:00Z,26.4040,-81.8810,24.52,1111122 
COMPS,ioos:station:USF.COMPS:BGC:1,2014-06-01T02:18:00Z,26.4040,-81.8810,24.49,1111122 
COMPS,ioos:station:USF.COMPS:BGC:1,2014-06-01T02:24:00Z,26.4040,-81.8810,24.5,1111122 
COMPS,ioos:station:USF.COMPS:BGC:1,2014-06-01T02:30:00Z,26.4040,-81.8810,24.54,1111122 
COMPS,ioos:station:USF.COMPS:BGC:1,2014-06-01T02:36:00Z,26.4040,-81.8810,24.68,1111122 
COMPS,ioos:station:USF.COMPS:BGC:1,2014-06-01T02:42:00Z,26.4040,-81.8810,24.73,1111122 
COMPS,ioos:station:USF.COMPS:BGC:1,2014-06-01T02:48:00Z,26.4040,-81.8810,24.82,1111122 
COMPS,ioos:station:USF.COMPS:BGC:1,2014-06-01T02:54:00Z,26.4040,-81.8810,24.89,1111122 
COMPS,ioos:station:USF.COMPS:BGC:1,2014-06-01T03:00:00Z,26.4040,-81.8810,24.91,1111122 
COMPS,ioos:station:USF.COMPS:BGC:1,2014-06-01T03:06:00Z,26.4040,-81.8810,24.65,1111122 
COMPS,ioos:station:USF.COMPS:BGC:1,2014-06-01T03:12:00Z,26.4040,-81.8810,24.63,1111122 
COMPS,ioos:station:USF.COMPS:BGC:1,2014-06-01T03:18:00Z,26.4040,-81.8810,24.65,1111122 
COMPS,ioos:station:USF.COMPS:BGC:1,2014-06-01T03:24:00Z,26.4040,-81.8810,24.57,1111122 
COMPS,ioos:station:USF.COMPS:BGC:1,2014-06-01T03:30:00Z,26.4040,-81.8810,24.64,1111122 
COMPS,ioos:station:USF.COMPS:BGC:1,2014-06-01T03:36:00Z,26.4040,-81.8810,24.73,1111122 
COMPS,ioos:station:USF.COMPS:BGC:1,2014-06-01T03:42:00Z,26.4040,-81.8810,24.9,1111122 
COMPS,ioos:station:USF.COMPS:BGC:1,2014-06-01T03:48:00Z,26.4040,-81.8810,24.96,1111122 
COMPS,ioos:station:USF.COMPS:BGC:1,2014-06-01T03:54:00Z,26.4040,-81.8810,24.99,1111122 
COMPS,ioos:station:USF.COMPS:BGC:1,2014-06-01T04:00:00Z,26.4040,-81.8810,24.99,1111122 
COMPS,ioos:station:USF.COMPS:BGC:1,2014-06-01T04:06:00Z,26.4040,-81.8810,24.97,1111122 
COMPS,ioos:station:USF.COMPS:BGC:1,2014-06-01T04:12:00Z,26.4040,-81.8810,25.05,1111122 
COMPS,ioos:station:USF.COMPS:BGC:1,2014-06-01T04:18:00Z,26.4040,-81.8810,25.04,1111122 
COMPS,ioos:station:USF.COMPS:BGC:1,2014-06-01T04:24:00Z,26.4040,-81.8810,24.89,1111122 
COMPS,ioos:station:USF.COMPS:BGC:1,2014-06-01T04:30:00Z,26.4040,-81.8810,24.89,1111122 
COMPS,ioos:station:USF.COMPS:BGC:1,2014-06-01T04:36:00Z,26.4040,-81.8810,24.86,1111122 
COMPS,ioos:station:USF.COMPS:BGC:1,2014-06-01T04:42:00Z,26.4040,-81.8810,24.91,1111122 
COMPS,ioos:station:USF.COMPS:BGC:1,2014-06-01T04:48:00Z,26.4040,-81.8810,24.73,1111122 
COMPS,ioos:station:USF.COMPS:BGC:1,2014-06-01T04:54:00Z,26.4040,-81.8810,24.74,1111122 
COMPS,ioos:station:USF.COMPS:BGC:1,2014-06-01T05:00:00Z,26.4040,-81.8810,24.61,1111122 
COMPS,ioos:station:USF.COMPS:BGC:1,2014-06-01T05:06:00Z,26.4040,-81.8810,24.3,1111122 
COMPS,ioos:station:USF.COMPS:BGC:1,2014-06-01T05:12:00Z,26.4040,-81.8810,24.32,1111122 
COMPS,ioos:station:USF.COMPS:BGC:1,2014-06-01T05:18:00Z,26.4040,-81.8810,24.44,1111122 
COMPS,ioos:station:USF.COMPS:BGC:1,2014-06-01T05:24:00Z,26.4040,-81.8810,24.67,1111122 
COMPS,ioos:station:USF.COMPS:BGC:1,2014-06-01T05:30:00Z,26.4040,-81.8810,24.74,1111122 
COMPS,ioos:station:USF.COMPS:BGC:1,2014-06-01T05:36:00Z,26.4040,-81.8810,24.77,1111122 
COMPS,ioos:station:USF.COMPS:BGC:1,2014-06-01T05:42:00Z,26.4040,-81.8810,24.63,1111122 
COMPS,ioos:station:USF.COMPS:BGC:1,2014-06-01T05:48:00Z,26.4040,-81.8810,24.64,1111122 
COMPS,ioos:station:USF.COMPS:BGC:1,2014-06-01T05:54:00Z,26.4040,-81.8810,24.73,1111122 
COMPS,ioos:station:USF.COMPS:BGC:1,2014-06-01T06:00:00Z,26.4040,-81.8810,24.76,1111122 
COMPS,ioos:station:USF.COMPS:BGC:1,2014-06-01T06:06:00Z,26.4040,-81.8810,24.79,1111122 
COMPS,ioos:station:USF.COMPS:BGC:1,2014-06-01T06:12:00Z,26.4040,-81.8810,24.82,1111122 
COMPS,ioos:station:USF.COMPS:BGC:1,2014-06-01T06:18:00Z,26.4040,-81.8810,24.78,1111122 
COMPS,ioos:station:USF.COMPS:BGC:1,2014-06-01T06:24:00Z,26.4040,-81.8810,24.81,1111122 
COMPS,ioos:station:USF.COMPS:BGC:1,2014-06-01T06:30:00Z,26.4040,-81.8810,24.85,1111122 
COMPS,ioos:station:USF.COMPS:BGC:1,2014-06-01T06:36:00Z,26.4040,-81.8810,24.77,1111122 
COMPS,ioos:station:USF.COMPS:BGC:1,2014-06-01T06:42:00Z,26.4040,-81.8810,24.71,1111122 
COMPS,ioos:station:USF.COMPS:BGC:1,2014-06-01T06:48:00Z,26.4040,-81.8810,24.76,1111122 
COMPS,ioos:station:USF.COMPS:BGC:1,2014-06-01T06:54:00Z,26.4040,-81.8810,24.42,1111122 
COMPS,ioos:station:USF.COMPS:BGC:1,2014-06-01T07:00:00Z,26.4040,-81.8810,24.19,1111122 
COMPS,ioos:station:USF.COMPS:BGC:1,2014-06-01T07:06:00Z,26.4040,-81.8810,24.27,1111122 
COMPS,ioos:station:USF.COMPS:BGC:1,2014-06-01T07:12:00Z,26.4040,-81.8810,24.38,1111122 
COMPS,ioos:station:USF.COMPS:BGC:1,2014-06-01T07:18:00Z,26.4040,-81.8810,24.5,1111122 
COMPS,ioos:station:USF.COMPS:BGC:1,2014-06-01T07:24:00Z,26.4040,-81.8810,24.55,1111122 
COMPS,ioos:station:USF.COMPS:BGC:1,2014-06-01T07:30:00Z,26.4040,-81.8810,24.57,1111122 
COMPS,ioos:station:USF.COMPS:BGC:1,2014-06-01T07:36:00Z,26.4040,-81.8810,24.51,1111122 
COMPS,ioos:station:USF.COMPS:BGC:1,2014-06-01T07:42:00Z,26.4040,-81.8810,24.51,1111122 
COMPS,ioos:station:USF.COMPS:BGC:1,2014-06-01T07:48:00Z,26.4040,-81.8810,24.55,1111122 
COMPS,ioos:station:USF.COMPS:BGC:1,2014-06-01T07:54:00Z,26.4040,-81.8810,24.56,1111122 
COMPS,ioos:station:USF.COMPS:BGC:1,2014-06-01T08:00:00Z,26.4040,-81.8810,24.54,1111122 
COMPS,ioos:station:USF.COMPS:BGC:1,2014-06-01T08:06:00Z,26.4040,-81.8810,24.48,1111122 
COMPS,ioos:station:USF.COMPS:BGC:1,2014-06-01T08:12:00Z,26.4040,-81.8810,24.39,1111122 
COMPS,ioos:station:USF.COMPS:BGC:1,2014-06-01T08:18:00Z,26.4040,-81.8810,24.47,1111122 
COMPS,ioos:station:USF.COMPS:BGC:1,2014-06-01T08:24:00Z,26.4040,-81.8810,24.49,1111122 
COMPS,ioos:station:USF.COMPS:BGC:1,2014-06-01T08:30:00Z,26.4040,-81.8810,24.53,1111122 
COMPS,ioos:station:USF.COMPS:BGC:1,2014-06-01T08:36:00Z,26.4040,-81.8810,24.46,1111122 
COMPS,ioos:station:USF.COMPS:BGC:1,2014-06-01T08:42:00Z,26.4040,-81.8810,24.42,1111122 
COMPS,ioos:station:USF.COMPS:BGC:1,2014-06-01T08:48:00Z,26.4040,-81.8810,24.33,1111122 
COMPS,ioos:station:USF.COMPS:BGC:1,2014-06-01T08:54:00Z,26.4040,-81.8810,24.35,1111122 
COMPS,ioos:station:USF.COMPS:BGC:1,2014-06-01T09:00:00Z,26.4040,-81.8810,24.42,1111122 
COMPS,ioos:station:USF.COMPS:BGC:1,2014-06-01T09:06:00Z,26.4040,-81.8810,24.39,1111122 
COMPS,ioos:station:USF.COMPS:BGC:1,2014-06-01T09:12:00Z,26.4040,-81.8810,24.29,1111122 
COMPS,ioos:station:USF.COMPS:BGC:1,2014-06-01T09:18:00Z,26.4040,-81.8810,24.24,1111122 
COMPS,ioos:station:USF.COMPS:BGC:1,2014-06-01T09:24:00Z,26.4040,-81.8810,24.22,1111122 
COMPS,ioos:station:USF.COMPS:BGC:1,2014-06-01T09:30:00Z,26.4040,-81.8810,24.27,1111122 
COMPS,ioos:station:USF.COMPS:BGC:1,2014-06-01T09:36:00Z,26.4040,-81.8810,24.27,1111122 
COMPS,ioos:station:USF.COMPS:BGC:1,2014-06-01T09:42:00Z,26.4040,-81.8810,24.2,1111122 
COMPS,ioos:station:USF.COMPS:BGC:1,2014-06-01T09:48:00Z,26.4040,-81.8810,24.15,1111122 
COMPS,ioos:station:USF.COMPS:BGC:1,2014-06-01T09:54:00Z,26.4040,-81.8810,24.18,1111122 
COMPS,ioos:station:USF.COMPS:BGC:1,2014-06-01T10:00:00Z,26.4040,-81.8810,24.17,1111122 
COMPS,ioos:station:USF.COMPS:BGC:1,2014-06-01T10:06:00Z,26.4040,-81.8810,24.26,1111122 
COMPS,ioos:station:USF.COMPS:BGC:1,2014-06-01T10:12:00Z,26.4040,-81.8810,24.13,1111122 
COMPS,ioos:station:USF.COMPS:BGC:1,2014-06-01T10:18:00Z,26.4040,-81.8810,24.1,1111122 
COMPS,ioos:station:USF.COMPS:BGC:1,2014-06-01T10:24:00Z,26.4040,-81.8810,24.11,1111122 
COMPS,ioos:station:USF.COMPS:BGC:1,2014-06-01T10:30:00Z,26.4040,-81.8810,24.11,1111122 
COMPS,ioos:station:USF.COMPS:BGC:1,2014-06-01T10:36:00Z,26.4040,-81.8810,24.09,1111122 
COMPS,ioos:station:USF.COMPS:BGC:1,2014-06-01T10:42:00Z,26.4040,-81.8810,24.17,1111122 
COMPS,ioos:station:USF.COMPS:BGC:1,2014-06-01T10:48:00Z,26.4040,-81.8810,24.19,1111122 
COMPS,ioos:station:USF.COMPS:BGC:1,2014-06-01T10:54:00Z,26.4040,-81.8810,24.22,1111122 
COMPS,ioos:station:USF.COMPS:BGC:1,2014-06-01T11:00:00Z,26.4040,-81.8810,24.28,1111122 
COMPS,ioos:station:USF.COMPS:BGC:1,2014-06-01T11:06:00Z,26.4040,-81.8810,24.3,1111122 
COMPS,ioos:station:USF.COMPS:BGC:1,2014-06-01T11:12:00Z,26.4040,-81.8810,24.24,1111122 
COMPS,ioos:station:USF.COMPS:BGC:1,2014-06-01T11:18:00Z,26.4040,-81.8810,24.22,1111122 
COMPS,ioos:station:USF.COMPS:BGC:1,2014-06-01T11:24:00Z,26.4040,-81.8810,24.29,1111122 
COMPS,ioos:station:USF.COMPS:BGC:1,2014-06-01T11:30:00Z,26.4040,-81.8810,24.28,1111122 
COMPS,ioos:station:USF.COMPS:BGC:1,2014-06-01T11:36:00Z,26.4040,-81.8810,24.35,1111122 
COMPS,ioos:station:USF.COMPS:BGC:1,2014-06-01T11:42:00Z,26.4040,-81.8810,24.51,1111122 
COMPS,ioos:station:USF.COMPS:BGC:1,2014-06-01T11:48:00Z,26.4040,-81.8810,24.62,1111122 
COMPS,ioos:station:USF.COMPS:BGC:1,2014-06-01T11:54:00Z,26.4040,-81.8810,24.77,1111122 
COMPS,ioos:station:USF.COMPS:BGC:1,2014-06-01T12:00:00Z,26.4040,-81.8810,24.83,1111122 
COMPS,ioos:station:USF.COMPS:BGC:1,2014-06-01T12:06:00Z,26.4040,-81.8810,24.95,1111122 
COMPS,ioos:station:USF.COMPS:BGC:1,2014-06-01T12:12:00Z,26.4040,-81.8810,24.96,1111122 
COMPS,ioos:station:USF.COMPS:BGC:1,2014-06-01T12:18:00Z,26.4040,-81.8810,25.03,1111122 
COMPS,ioos:station:USF.COMPS:BGC:1,2014-06-01T12:24:00Z,26.4040,-81.8810,25.09,1111122 
COMPS,ioos:station:USF.COMPS:BGC:1,2014-06-01T12:30:00Z,26.4040,-81.8810,25.25,1111122 
COMPS,ioos:station:USF.COMPS:BGC:1,2014-06-01T12:36:00Z,26.4040,-81.8810,25.44,1111122 
COMPS,ioos:station:USF.COMPS:BGC:1,2014-06-01T12:42:00Z,26.4040,-81.8810,25.54,1111122 
COMPS,ioos:station:USF.COMPS:BGC:1,2014-06-01T12:48:00Z,26.4040,-81.8810,25.71,1111122 
COMPS,ioos:station:USF.COMPS:BGC:1,2014-06-01T12:54:00Z,26.4040,-81.8810,25.87,1111122 
COMPS,ioos:station:USF.COMPS:BGC:1,2014-06-01T13:00:00Z,26.4040,-81.8810,25.98,1111122 
COMPS,ioos:station:USF.COMPS:BGC:1,2014-06-01T13:06:00Z,26.4040,-81.8810,26.02,1111122 
COMPS,ioos:station:USF.COMPS:BGC:1,2014-06-01T13:12:00Z,26.4040,-81.8810,26.15,1111122 
COMPS,ioos:station:USF.COMPS:BGC:1,2014-06-01T13:18:00Z,26.4040,-81.8810,26.22,1111122 
COMPS,ioos:station:USF.COMPS:BGC:1,2014-06-01T13:24:00Z,26.4040,-81.8810,26.39,1111122 
COMPS,ioos:station:USF.COMPS:BGC:1,2014-06-01T13:30:00Z,26.4040,-81.8810,26.38,1111122 
COMPS,ioos:station:USF.COMPS:BGC:1,2014-06-01T13:36:00Z,26.4040,-81.8810,26.66,1111122 
COMPS,ioos:station:USF.COMPS:BGC:1,2014-06-01T13:42:00Z,26.4040,-81.8810,26.73,1111122 
COMPS,ioos:station:USF.COMPS:BGC:1,2014-06-01T13:48:00Z,26.4040,-81.8810,26.78,1111122 
COMPS,ioos:station:USF.COMPS:BGC:1,2014-06-01T13:54:00Z,26.4040,-81.8810,26.87,1111122 
COMPS,ioos:station:USF.COMPS:BGC:1,2014-06-01T14:00:00Z,26.4040,-81.8810,27.07,1111122 
COMPS,ioos:station:USF.COMPS:BGC:1,2014-06-01T14:06:00Z,26.4040,-81.8810,27.03,1111122 
COMPS,ioos:station:USF.COMPS:BGC:1,2014-06-01T14:12:00Z,26.4040,-81.8810,27.06,1111122 
COMPS,ioos:station:USF.COMPS:BGC:1,2014-06-01T14:18:00Z,26.4040,-81.8810,27.09,1111122 
COMPS,ioos:station:USF.COMPS:BGC:1,2014-06-01T14:24:00Z,26.4040,-81.8810,27.32,1111122 
COMPS,ioos:station:USF.COMPS:BGC:1,2014-06-01T14:30:00Z,26.4040,-81.8810,27.49,1111122 
COMPS,ioos:station:USF.COMPS:BGC:1,2014-06-01T14:36:00Z,26.4040,-81.8810,27.77,1111122 
COMPS,ioos:station:USF.COMPS:BGC:1,2014-06-01T14:42:00Z,26.4040,-81.8810,27.86,1111122 
COMPS,ioos:station:USF.COMPS:BGC:1,2014-06-01T14:48:00Z,26.4040,-81.8810,28.04,1111122 
COMPS,ioos:station:USF.COMPS:BGC:1,2014-06-01T14:54:00Z,26.4040,-81.8810,27.94,1111122 
COMPS,ioos:station:USF.COMPS:BGC:1,2014-06-01T15:00:00Z,26.4040,-81.8810,28.07,1111122 
COMPS,ioos:station:USF.COMPS:BGC:1,2014-06-01T15:06:00Z,26.4040,-81.8810,28.26,1111122 
COMPS,ioos:station:USF.COMPS:BGC:1,2014-06-01T15:12:00Z,26.4040,-81.8810,28.45,1111122 
COMPS,ioos:station:USF.COMPS:BGC:1,2014-06-01T15:18:00Z,26.4040,-81.8810,28.62,1111122 
COMPS,ioos:station:USF.COMPS:BGC:1,2014-06-01T15:24:00Z,26.4040,-81.8810,28.6,1111122 
COMPS,ioos:station:USF.COMPS:BGC:1,2014-06-01T15:30:00Z,26.4040,-81.8810,28.93,1111122 
COMPS,ioos:station:USF.COMPS:BGC:1,2014-06-01T15:36:00Z,26.4040,-81.8810,28.86,1111122 
COMPS,ioos:station:USF.COMPS:BGC:1,2014-06-01T15:42:00Z,26.4040,-81.8810,28.85,1111122 
COMPS,ioos:station:USF.COMPS:BGC:1,2014-06-01T15:48:00Z,26.4040,-81.8810,29.24,1111122 
COMPS,ioos:station:USF.COMPS:BGC:1,2014-06-01T15:54:00Z,26.4040,-81.8810,29.42,1111122 
COMPS,ioos:station:USF.COMPS:BGC:1,2014-06-01T16:00:00Z,26.4040,-81.8810,29.49,1111122 
COMPS,ioos:station:USF.COMPS:BGC:1,2014-06-01T16:06:00Z,26.4040,-81.8810,29.57,1111122 
COMPS,ioos:station:USF.COMPS:BGC:1,2014-06-01T16:12:00Z,26.4040,-81.8810,29.9,1111122 
COMPS,ioos:station:USF.COMPS:BGC:1,2014-06-01T16:18:00Z,26.4040,-81.8810,29.73,1111122 
COMPS,ioos:station:USF.COMPS:BGC:1,2014-06-01T16:24:00Z,26.4040,-81.8810,29.75,1111122 
COMPS,ioos:station:USF.COMPS:BGC:1,2014-06-01T16:30:00Z,26.4040,-81.8810,29.84,1111122 
COMPS,ioos:station:USF.COMPS:BGC:1,2014-06-01T16:36:00Z,26.4040,-81.8810,30.09,1111122 
COMPS,ioos:station:USF.COMPS:BGC:1,2014-06-01T16:42:00Z,26.4040,-81.8810,30.19,1111122 
COMPS,ioos:station:USF.COMPS:BGC:1,2014-06-01T16:48:00Z,26.4040,-81.8810,30.48,1111122 
COMPS,ioos:station:USF.COMPS:BGC:1,2014-06-01T16:54:00Z,26.4040,-81.8810,30.65,1111122 
COMPS,ioos:station:USF.COMPS:BGC:1,2014-06-01T17:00:00Z,26.4040,-81.8810,30.64,1111122 
COMPS,ioos:station:USF.COMPS:BGC:1,2014-06-01T17:06:00Z,26.4040,-81.8810,30.34,1111122 
COMPS,ioos:station:USF.COMPS:BGC:1,2014-06-01T17:12:00Z,26.4040,-81.8810,30.66,1111122 
COMPS,ioos:station:USF.COMPS:BGC:1,2014-06-01T17:18:00Z,26.4040,-81.8810,30.59,1111122 
COMPS,ioos:station:USF.COMPS:BGC:1,2014-06-01T17:24:00Z,26.4040,-81.8810,30.81,1111122 
COMPS,ioos:station:USF.COMPS:BGC:1,2014-06-01T17:30:00Z,26.4040,-81.8810,30.79,1111122 
COMPS,ioos:station:USF.COMPS:BGC:1,2014-06-01T17:36:00Z,26.4040,-81.8810,31.05,1111122 
COMPS,ioos:station:USF.COMPS:BGC:1,2014-06-01T17:42:00Z,26.4040,-81.8810,30.8,1111122 
COMPS,ioos:station:USF.COMPS:BGC:1,2014-06-01T17:48:00Z,26.4040,-81.8810,30.93,1111122 
COMPS,ioos:station:USF.COMPS:BGC:1,2014-06-01T17:54:00Z,26.4040,-81.8810,30.99,1111122 
COMPS,ioos:station:USF.COMPS:BGC:1,2014-06-01T18:00:00Z,26.4040,-81.8810,31.05,1111122 
COMPS,ioos:station:USF.COMPS:BGC:1,2014-06-01T18:06:00Z,26.4040,-81.8810,31.15,1111122 
COMPS,ioos:station:USF.COMPS:BGC:1,2014-06-01T18:12:00Z,26.4040,-81.8810,31.05,1111122 
COMPS,ioos:station:USF.COMPS:BGC:1,2014-06-01T18:18:00Z,26.4040,-81.8810,30.9,1111122 
COMPS,ioos:station:USF.COMPS:BGC:1,2014-06-01T18:24:00Z,26.4040,-81.8810,31.05,1111122 
COMPS,ioos:station:USF.COMPS:BGC:1,2014-06-01T18:30:00Z,26.4040,-81.8810,30.99,1111122 
COMPS,ioos:station:USF.COMPS:BGC:1,2014-06-01T18:36:00Z,26.4040,-81.8810,31.09,1111122 
COMPS,ioos:station:USF.COMPS:BGC:1,2014-06-01T18:42:00Z,26.4040,-81.8810,31.14,1111122 
COMPS,ioos:station:USF.COMPS:BGC:1,2014-06-01T18:48:00Z,26.4040,-81.8810,30.96,1111122 
COMPS,ioos:station:USF.COMPS:BGC:1,2014-06-01T18:54:00Z,26.4040,-81.8810,30.9,1111122 
COMPS,ioos:station:USF.COMPS:BGC:1,2014-06-01T19:00:00Z,26.4040,-81.8810,31.18,1111122 
COMPS,ioos:station:USF.COMPS:BGC:1,2014-06-01T19:06:00Z,26.4040,-81.8810,31.46,1111122 
COMPS,ioos:station:USF.COMPS:BGC:1,2014-06-01T19:12:00Z,26.4040,-81.8810,31.44,1111122 
COMPS,ioos:station:USF.COMPS:BGC:1,2014-06-01T19:18:00Z,26.4040,-81.8810,28.77,1111122 
COMPS,ioos:station:USF.COMPS:BGC:1,2014-06-01T19:24:00Z,26.4040,-81.8810,26.92,1111122 
COMPS,ioos:station:USF.COMPS:BGC:1,2014-06-01T19:30:00Z,26.4040,-81.8810,25.33,1111122 
COMPS,ioos:station:USF.COMPS:BGC:1,2014-06-01T19:36:00Z,26.4040,-81.8810,25.86,1111122 
COMPS,ioos:station:USF.COMPS:BGC:1,2014-06-01T19:42:00Z,26.4040,-81.8810,26.64,1111122 
COMPS,ioos:station:USF.COMPS:BGC:1,2014-06-01T19:48:00Z,26.4040,-81.8810,27.68,1111122 
COMPS,ioos:station:USF.COMPS:BGC:1,2014-06-01T19:54:00Z,26.4040,-81.8810,28.05,1111122 
COMPS,ioos:station:USF.COMPS:BGC:1,2014-06-01T20:00:00Z,26.4040,-81.8810,28.09,1111122 
COMPS,ioos:station:USF.COMPS:BGC:1,2014-06-01T20:06:00Z,26.4040,-81.8810,28.32,1111122 
COMPS,ioos:station:USF.COMPS:BGC:1,2014-06-01T20:12:00Z,26.4040,-81.8810,28.05,1111122 
COMPS,ioos:station:USF.COMPS:BGC:1,2014-06-01T20:18:00Z,26.4040,-81.8810,27.57,1111122 
COMPS,ioos:station:USF.COMPS:BGC:1,2014-06-01T20:24:00Z,26.4040,-81.8810,27.88,1111122 
COMPS,ioos:station:USF.COMPS:BGC:1,2014-06-01T20:30:00Z,26.4040,-81.8810,28.45,1111122 
COMPS,ioos:station:USF.COMPS:BGC:1,2014-06-01T20:36:00Z,26.4040,-81.8810,28.86,1111122 
COMPS,ioos:station:USF.COMPS:BGC:1,2014-06-01T20:42:00Z,26.4040,-81.8810,28.52,1111122 
COMPS,ioos:station:USF.COMPS:BGC:1,2014-06-01T20:48:00Z,26.4040,-81.8810,28.36,1111122 
COMPS,ioos:station:USF.COMPS:BGC:1,2014-06-01T20:54:00Z,26.4040,-81.8810,28.05,1111122 
COMPS,ioos:station:USF.COMPS:BGC:1,2014-06-01T21:00:00Z,26.4040,-81.8810,27.92,1111122 
COMPS,ioos:station:USF.COMPS:BGC:1,2014-06-01T21:06:00Z,26.4040,-81.8810,27.05,1111122 
COMPS,ioos:station:USF.COMPS:BGC:1,2014-06-01T21:12:00Z,26.4040,-81.8810,26.36,1111122 
COMPS,ioos:station:USF.COMPS:BGC:1,2014-06-01T21:18:00Z,26.4040,-81.8810,26.17,1111122 
COMPS,ioos:station:USF.COMPS:BGC:1,2014-06-01T21:24:00Z,26.4040,-81.8810,26.39,1111122 
COMPS,ioos:station:USF.COMPS:BGC:1,2014-06-01T21:30:00Z,26.4040,-81.8810,26.72,1111122 
COMPS,ioos:station:USF.COMPS:BGC:1,2014-06-01T21:36:00Z,26.4040,-81.8810,27.01,1111122 
COMPS,ioos:station:USF.COMPS:BGC:1,2014-06-01T21:42:00Z,26.4040,-81.8810,27.03,1111122 
COMPS,ioos:station:USF.COMPS:BGC:1,2014-06-01T21:48:00Z,26.4040,-81.8810,26.71,1111122 
COMPS,ioos:station:USF.COMPS:BGC:1,2014-06-01T21:54:00Z,26.4040,-81.8810,26.63,1111122 
COMPS,ioos:station:USF.COMPS:BGC:1,2014-06-01T22:00:00Z,26.4040,-81.8810,26.52,1111122 
COMPS,ioos:station:USF.COMPS:BGC:1,2014-06-01T22:06:00Z,26.4040,-81.8810,26.47,1111122 
COMPS,ioos:station:USF.COMPS:BGC:1,2014-06-01T22:12:00Z,26.4040,-81.8810,26.36,1111122 
COMPS,ioos:station:USF.COMPS:BGC:1,2014-06-01T22:18:00Z,26.4040,-81.8810,26.47,1111122 
COMPS,ioos:station:USF.COMPS:BGC:1,2014-06-01T22:24:00Z,26.4040,-81.8810,26.47,1111122 
COMPS,ioos:station:USF.COMPS:BGC:1,2014-06-01T22:30:00Z,26.4040,-81.8810,26.4,1111122 
COMPS,ioos:station:USF.COMPS:BGC:1,2014-06-01T22:36:00Z,26.4040,-81.8810,26.34,1111122 
COMPS,ioos:station:USF.COMPS:BGC:1,2014-06-01T22:42:00Z,26.4040,-81.8810,26.39,1111122 
COMPS,ioos:station:USF.COMPS:BGC:1,2014-06-01T22:48:00Z,26.4040,-81.8810,26.42,1111122 
COMPS,ioos:station:USF.COMPS:BGC:1,2014-06-01T22:54:00Z,26.4040,-81.8810,26.44,1111122 
COMPS,ioos:station:USF.COMPS:BGC:1,2014-06-01T23:00:00Z,26.4040,-81.8810,26.43,1111122 
COMPS,ioos:station:USF.COMPS:BGC:1,2014-06-01T23:06:00Z,26.4040,-81.8810,26.37,1111122 
COMPS,ioos:station:USF.COMPS:BGC:1,2014-06-01T23:12:00Z,26.4040,-81.8810,26.3,1111122 
COMPS,ioos:station:USF.COMPS:BGC:1,2014-06-01T23:18:00Z,26.4040,-81.8810,26.28,1111122 
COMPS,ioos:station:USF.COMPS:BGC:1,2014-06-01T23:24:00Z,26.4040,-81.8810,26.27,1111122 
COMPS,ioos:station:USF.COMPS:BGC:1,2014-06-01T23:30:00Z,26.4040,-81.8810,26.23,1111122 
COMPS,ioos:station:USF.COMPS:BGC:1,2014-06-01T23:36:00Z,26.4040,-81.8810,26.36,1111122 
COMPS,ioos:station:USF.COMPS:BGC:1,2014-06-01T23:42:00Z,26.4040,-81.8810,26.36,1111122 
COMPS,ioos:station:USF.COMPS:BGC:1,2014-06-01T23:48:00Z,26.4040,-81.8810,26.39,1111122 
COMPS,ioos:station:USF.COMPS:BGC:1,2014-06-01T23:54:00Z,26.4040,-81.8810,26.3,1111122 
COMPS,ioos:station:USF.COMPS:BGC:1,2014-06-02T00:00:00Z,26.4040,-81.8810,26.38,1111122 
COMPS,ioos:station:USF.COMPS:BGC:1,2014-06-02T00:06:00Z,26.4040,-81.8810,26.42,1111122 
COMPS,ioos:station:USF.COMPS:BGC:1,2014-06-02T00:12:00Z,26.4040,-81.8810,26.49,1111122 
COMPS,ioos:station:USF.COMPS:BGC:1,2014-06-02T00:18:00Z,26.4040,-81.8810,26.48,1111122 
COMPS,ioos:station:USF.COMPS:BGC:1,2014-06-02T00:24:00Z,26.4040,-81.8810,26.43,1111122 
COMPS,ioos:station:USF.COMPS:BGC:1,2014-06-02T00:30:00Z,26.4040,-81.8810,26.45,1111122 
COMPS,ioos:station:USF.COMPS:BGC:1,2014-06-02T00:36:00Z,26.4040,-81.8810,26.54,1111122 
COMPS,ioos:station:USF.COMPS:BGC:1,2014-06-02T00:42:00Z,26.4040,-81.8810,26.62,1111122 
COMPS,ioos:station:USF.COMPS:BGC:1,2014-06-02T00:48:00Z,26.4040,-81.8810,26.58,1111122 
COMPS,ioos:station:USF.COMPS:BGC:1,2014-06-02T00:54:00Z,26.4040,-81.8810,26.59,1111122 
COMPS,ioos:station:USF.COMPS:BGC:1,2014-06-02T01:00:00Z,26.4040,-81.8810,26.61,1111122 
COMPS,ioos:station:USF.COMPS:BGC:1,2014-06-02T01:06:00Z,26.4040,-81.8810,26.68,1111122 
COMPS,ioos:station:USF.COMPS:BGC:1,2014-06-02T01:12:00Z,26.4040,-81.8810,26.67,1111122 
COMPS,ioos:station:USF.COMPS:BGC:1,2014-06-02T01:18:00Z,26.4040,-81.8810,26.56,1111122 
COMPS,ioos:station:USF.COMPS:BGC:1,2014-06-02T01:24:00Z,26.4040,-81.8810,26.48,1111122 
COMPS,ioos:station:USF.COMPS:BGC:1,2014-06-02T01:30:00Z,26.4040,-81.8810,26.46,1111122 
COMPS,ioos:station:USF.COMPS:BGC:1,2014-06-02T01:36:00Z,26.4040,-81.8810,26.44,1111122 
COMPS,ioos:station:USF.COMPS:BGC:1,2014-06-02T01:42:00Z,26.4040,-81.8810,26.48,1111122 
COMPS,ioos:station:USF.COMPS:BGC:1,2014-06-02T01:48:00Z,26.4040,-81.8810,26.45,1111122 
COMPS,ioos:station:USF.COMPS:BGC:1,2014-06-02T01:54:00Z,26.4040,-81.8810,26.37,1111122 
COMPS,ioos:station:USF.COMPS:BGC:1,2014-06-02T02:00:00Z,26.4040,-81.8810,26.37,1111122 
COMPS,ioos:station:USF.COMPS:BGC:1,2014-06-02T02:06:00Z,26.4040,-81.8810,26.33,1111122 
COMPS,ioos:station:USF.COMPS:BGC:1,2014-06-02T02:12:00Z,26.4040,-81.8810,26.33,1111122 
COMPS,ioos:station:USF.COMPS:BGC:1,2014-06-02T02:18:00Z,26.4040,-81.8810,26.31,1111122 
COMPS,ioos:station:USF.COMPS:BGC:1,2014-06-02T02:24:00Z,26.4040,-81.8810,26.31,1111122 
COMPS,ioos:station:USF.COMPS:BGC:1,2014-06-02T02:30:00Z,26.4040,-81.8810,26.34,1111122 
COMPS,ioos:station:USF.COMPS:BGC:1,2014-06-02T02:36:00Z,26.4040,-81.8810,26.3,1111122 
COMPS,ioos:station:USF.COMPS:BGC:1,2014-06-02T02:42:00Z,26.4040,-81.8810,26.19,1111122 
COMPS,ioos:station:USF.COMPS:BGC:1,2014-06-02T02:48:00Z,26.4040,-81.8810,26.1,1111122 
COMPS,ioos:station:USF.COMPS:BGC:1,2014-06-02T02:54:00Z,26.4040,-81.8810,26.05,1111122 
COMPS,ioos:station:USF.COMPS:BGC:1,2014-06-02T03:00:00Z,26.4040,-81.8810,26.01,1111122 
COMPS,ioos:station:USF.COMPS:BGC:1,2014-06-02T03:06:00Z,26.4040,-81.8810,25.98,1111122 